Weather History for PHJR - October, 2012

Change the Weather History Date:

Thursday, October 11, 2012

  Actual Average (PHNL) Record (PHNL)
Temperature  
Mean Temperature 78 °F 80 °F  
Max Temperature 84 °F 87 °F 93 °F (1979)
Min Temperature 72 °F 74 °F 66 °F (1965)
Degree Days  
Heating Degree Days 0 0  
Month to date heating degree days 0  
Since 1 July heating degree days 0  
Cooling Degree Days 13 15  
Month to date cooling degree days 174  
Year to date cooling degree days 3653  
Growing Degree Days 28 (Base 50)    
Moisture  
Dew Point 69 °F    
Average Humidity 75    
Maximum Humidity 93    
Minimum Humidity 55    
Precipitation  
Precipitation 0.00 in 0.05 in 1.13 in (1966)
Month to date precipitation 0.51  
Year to date precipitation 10.11  
Snow  
Snow 0.00 in - - ()
Month to date snowfall  
Since 1 July snowfall  
Since 1 September snowfall  
Snow Depth -    
Sea Level Pressure  
Sea Level Pressure 30.08 in    
Wind  
Wind Speed 3 mph (ENE)    
Max Wind Speed 9 mph    
Max Gust Speed 18 mph    
Visibility 10 miles    
Events      
T = Trace of Precipitation, MM = Missing Value Source: NWS Daily Summary

Daily Weather History Graph

Daily Weather History Graph

Search for Another Location

Airport or City:

Trip Planner

Search our weather history database for the weather conditions in past years. The results will help you decide how hot, cold, wet, or windy it might be!

Date:

Astronomy

Oct. 11, 2012 Rise Set
Actual Time 6:26 AM HST 6:10 PM HST
Civil Twilight 6:04 AM HST 6:32 PM HST
Nautical Twilight 5:38 AM HST 6:58 PM HST
Astronomical Twilight 5:12 AM HST 7:24 PM HST
Moon 2:45 AM HST (10/11) 3:30 PM HST (10/11)
Length of Visible Light 12h 28m
Length of Day
11h 43m
Waning Crescent, 16% of the Moon is Illuminated
Oct 11
Waning Crescent
Oct 15
New
Oct 21
First Quarter
Oct 29
Full
Nov 6
Last Quarter

Hourly Weather History & Observations

Time (HST) Temp. Heat Index Dew Point Humidity Pressure Visibility Wind Dir Wind Speed Gust Speed Precip Events Conditions
12:02 AM 75.2 °F - 71.6 °F 89% 30.10 in 10.0 mi Calm Calm - N/A   Overcast
12:11 AM 75.2 °F - 71.6 °F 89% 30.10 in 10.0 mi Calm Calm - N/A   Overcast
12:45 AM 75.2 °F - 71.6 °F 89% 30.09 in 10.0 mi Calm Calm - N/A   Scattered Clouds
12:53 AM 73.9 °F - 71.1 °F 91% 30.11 in 10.0 mi Calm Calm - N/A   Partly Cloudy
1:53 AM 73.0 °F - 71.1 °F 93% 30.09 in 10.0 mi Calm Calm - N/A   Mostly Cloudy
2:53 AM 73.0 °F - 71.1 °F 93% 30.08 in 10.0 mi Variable 3.5 mph - N/A   Scattered Clouds
3:53 AM 73.0 °F - 71.1 °F 93% 30.08 in 10.0 mi Calm Calm - N/A   Scattered Clouds
4:53 AM 72.0 °F - 70.0 °F 93% 30.08 in 10.0 mi Variable 3.5 mph - N/A   Clear
5:53 AM 73.0 °F - 70.0 °F 90% 30.10 in 10.0 mi ENE 3.5 mph - N/A   Overcast
6:53 AM 73.9 °F - 70.0 °F 87% 30.11 in 10.0 mi Calm Calm - N/A   Overcast
7:53 AM 78.1 °F - 70.0 °F 76% 30.12 in 10.0 mi Variable 3.5 mph - N/A   Overcast
8:53 AM 80.1 °F 82.1 °F 66.0 °F 62% 30.12 in 10.0 mi ENE 8.1 mph - N/A   Partly Cloudy
9:53 AM 82.0 °F 84.1 °F 66.0 °F 58% 30.12 in 10.0 mi East 9.2 mph 18.4 mph N/A   Clear
10:53 AM 84.9 °F 87.6 °F 66.9 °F 55% 30.10 in 10.0 mi Variable 5.8 mph - N/A   Mostly Cloudy
11:53 AM 84.0 °F 87.0 °F 68.0 °F 58% 30.07 in 10.0 mi Variable 6.9 mph - N/A   Scattered Clouds
12:53 PM 84.9 °F 88.2 °F 68.0 °F 57% 30.04 in 10.0 mi Variable 5.8 mph - N/A   Clear
1:53 PM 84.9 °F 88.2 °F 68.0 °F 57% 30.02 in 10.0 mi ENE 8.1 mph - N/A   Partly Cloudy
2:53 PM 84.9 °F 88.2 °F 68.0 °F 57% 30.01 in 10.0 mi Variable 6.9 mph - N/A   Clear
3:10 PM 84.2 °F 87.3 °F 68.0 °F 58% 29.99 in 10.0 mi Variable 6.9 mph - N/A   Partly Cloudy
3:53 PM 84.0 °F 87.0 °F 68.0 °F 58% 30.01 in 10.0 mi ENE 9.2 mph - N/A   Clear
4:53 PM 82.9 °F 85.8 °F 68.0 °F 60% 30.03 in 10.0 mi Variable 5.8 mph - N/A   Partly Cloudy
5:53 PM 79.0 °F - 66.9 °F 66% 30.05 in 10.0 mi Variable 5.8 mph - N/A   Clear
6:53 PM 75.9 °F - 66.9 °F 74% 30.07 in 10.0 mi Variable 3.5 mph - N/A   Partly Cloudy
7:53 PM 75.0 °F - 66.9 °F 76% 30.10 in 10.0 mi Variable 3.5 mph - N/A   Clear
8:53 PM 73.9 °F - 66.9 °F 79% 30.12 in 10.0 mi ENE 3.5 mph - N/A   Scattered Clouds
9:53 PM 73.9 °F - 66.0 °F 76% 30.13 in 10.0 mi Variable 4.6 mph - N/A   Clear
10:53 PM 73.9 °F - 66.0 °F 76% 30.12 in 10.0 mi ENE 3.5 mph - N/A   Clear
11:53 PM 73.9 °F - 66.9 °F 79% 30.11 in 10.0 mi ENE 4.6 mph - N/A   Clear